Вернуться в каталог

DELTA 1 DEB

АктивенLEO
NORAD 10252·DEBRIS·🇺🇸 United States

Запущен Jul 14, 1977 с Cape Canaveral Space Force Station

Loading…

Ближайшие Пролёты (ближайшие 24 часа)

TLE

СвежийSource: Space-Track

Эпоха: Sep 14, 2026, 14:06 UTC

1 10252U 77065CD  26257.58814377  .00000926  00000-0  37468-3 0  9998
2 10252  28.8420  80.8070 0753922  57.2127 309.8803 13.27944332351739

Отслеживайте DELTA 1 DEB в реальном времени с AllMySat

Download on the App Store